Accueil
METAR-TAF:

METAR-TAF

Aéroports :

Berlin, New Hampshire, États-Unis

latitude: 44-34-34N, longitude: 071-10-43W, altitude: 353 m

Observation

Le bulletin a été fait il y a 14 minutes, à 06:52 UTC
Vent calme
Température -2°C
Humidité 93%
Pression 1011 hPa
Visibilité: 16.1 km
Ciel clair

METAR: KBML 170652Z AUTO 00000KT 10SM CLR M02/M03 A2986 RMK AO2 SLP123 I1000 T10221033

Heure: 03:06 (07:06 UTC)


TAF: absent

Observations et prévisions météorologiques de plus de 4000 aéroports (messages METAR et TAF).

Les stations disponibles sont représentées par des disques jaunes et rouges sur la carte.

Passer la souris dessus pour voir le nom de la station.

Cliquer dessus pour voir les observations et prévisions météorologiques.

Pour changer de carte: cliquez sur les boutons verts avec une croix noire pour zoomer, sur le bouton vert avec un tiret pour effectuer un zoom arrière, ou sur les flèches vertes pour les cartes adjacentes.


METAR-TAF: